[[{"header":{"parameterUnit":"m.s-1","parameterCategory":2,"la1":30.2992,"la2":30.254,"lo1":-89.0895,"lo2":-89.0443,"dy":0.0025,"dx":0.0025,"nx":19,"ny":19,"refTime":"2026-03-20T09:00:00:Z","depth":"0","parameterNumber":2,"parameterNumberName":"U-component_of_CURRENTS"},"data":[0,0,0,0.1724,0.1724,0.1678,0.1677,0.168,0.168,0,0,0,0,0,0,0,0,0,0,0,0.1706,0.1706,0.1724,0.1724,0.1678,0.1677,0.1679,0.168,0,0,0,0,0,0,0,0,0,0,0,0.1706,0.1706,0.1706,0.1725,0.1678,0.1677,0.1679,0.1686,0,0,0,0,0,0,0,0,0,0,0.1718,0.1688,0.1706,0.1706,0.1725,0.1678,0.1677,0.1685,0.1686,0.1735,0,0.1737,0,0.1751,0.1687,0.1687,0,0,0,0.1672,0.1687,0.1716,0.1706,0.1725,0.1678,0.1684,0.1685,0.1686,0.1737,0.1737,0.1738,0.1751,0.1688,0.1688,0.1795,0.1796,0,0,0.1674,0.1656,0.1716,0.1717,0.1729,0.1686,0.1683,0.1684,0.167,0.1737,0.1738,0.1751,0.1688,0.1689,0.1795,0.1796,0,0,0,0.1717,0.1658,0.1683,0.1716,0.1727,0.1686,0.1683,0.1667,0.1688,0.1739,0.1751,0.1689,0.169,0.1795,0.1795,0.1719,0,0,0,0.1716,0.1688,0.1684,0.1667,0.1727,0.1685,0.1665,0.1685,0.1687,0.1751,0.1689,0.1691,0.1794,0.1795,0.172,0.1726,0,0,0,0.1705,0.1686,0.1694,0.1667,0.168,0.1686,0.17,0.1684,0.1699,0.1687,0.1691,0.1794,0.1795,0.1721,0.1727,0.1777,0,0,0,0.1669,0.1657,0.1693,0.167,0.1681,0.1667,0.17,0.1665,0.1646,0.1689,0.1794,0.1795,0.1721,0.1727,0.1777,0.18,0.1803,0,0,0.1636,0.1651,0.1639,0.1672,0.1669,0.1668,0.1642,0.1634,0.1691,0.1788,0.179,0.1719,0.1727,0.1777,0.1862,0.1863,0,0,0,0.1616,0.1625,0.1621,0.163,0.1631,0.1622,0.1619,0.1647,0.1693,0.1701,0.1763,0.1773,0.1805,0.182,0.1821,0.1848,0.18,0.18,0.18,0.1551,0.1576,0.1568,0.1598,0.1584,0.1591,0.159,0.1648,0.1677,0.1703,0.174,0.1773,0.1785,0.1788,0.1814,0.1755,0.1755,0.1755,0.1755,0.1534,0.153,0.156,0.1569,0.1574,0.1564,0.1602,0.1618,0.1712,0.1722,0.1757,0.1776,0.1785,0.1813,0.175,0.1751,0.1752,0.1752,0.1752,0.152,0.1513,0.1537,0.1538,0.1551,0.1556,0.1579,0.1625,0.1691,0.1713,0.1795,0.1796,0.18,0.1741,0.1741,0.1741,0.1741,0.1742,0.1742,0.146,0.1487,0.1469,0.1503,0.1499,0.1512,0.1572,0.1615,0.1715,0.1766,0.1767,0.183,0.1771,0.1748,0.1745,0.1745,0.1744,0.1744,0.1744,0.1367,0.1391,0.1382,0.1377,0.1387,0.1388,0.1477,0.1608,0.17,0.1771,0.1869,0.181,0.1859,0.1859,0.1841,0.1863,0.1863,0.1863,0.1863,0.1275,0.1295,0.1265,0.1258,0.1254,0.1318,0.1327,0.1473,0.1741,0.1865,0.1931,0.1906,0.19,0.1951,0.1948,0.1933,0.1978,0.1978,0.1978,0.1153,0.12,0.1149,0.1201,0.1202,0.1219,0.1217,0.1318,0.1735,0.1984,0.1964,0.1959,0.1921,0.191,0.1988,0.1982,0.1956,0,0]},{"header":{"parameterUnit":"m.s-1","parameterCategory":2,"la1":30.2992,"la2":30.254,"lo1":-89.0895,"lo2":-89.0443,"dy":0.0025,"dx":0.0025,"nx":19,"ny":19,"refTime":"2026-03-20T09:00:00:Z","depth":"0","parameterNumber":3,"parameterNumberName":"V-component_of_CURRENTS"},"data":[0,0,0,0.0003,0.0003,0.0009,0.0009,0.005,0.0051,0,0,0,0,0,0,0,0,0,0,0,-0.0013,-0.0014,0.0003,0.0003,0.0009,0.0009,0.005,0.0051,0,0,0,0,0,0,0,0,0,0,0,-0.0013,-0.0013,-0.0014,0.0003,0.0009,0.0009,0.005,0.004,0,0,0,0,0,0,0,0,0,0,0.0031,0.0029,-0.0013,-0.0014,0.0003,0.0009,0.0009,0.0039,0.0041,0.0053,0,0.0033,0,0.0044,0.0053,0.0053,0,0,0,0.0014,0.0028,0.0007,-0.0014,0.0003,0.0009,0.001,0.004,0.0042,0.0055,0.0034,0.0035,0.0045,0.0053,0.0054,0.0061,0.0061,0,0,0.0014,0.0017,0.0006,0.0007,-0.0023,0.0009,0.001,0.0041,0.0045,0.0034,0.0037,0.0045,0.0054,0.0054,0.0061,0.0061,0,0,0,0.0005,0.0017,-0.0004,0.0005,0.0004,0.0009,0.001,0.0044,0.0029,0.0037,0.0046,0.0054,0.0054,0.0061,0.0061,0.01,0,0,0,0.0006,0.0011,-0.0005,0.0001,0.0003,0.0026,0.0012,0.0027,0.0031,0.0046,0.0054,0.0055,0.0061,0.0061,0.01,0.013,0,0,0,-0.0008,0.0011,-0.0003,0.0001,-0.0003,0.0025,0.0014,0.0028,0.0036,0.0053,0.0055,0.0062,0.0061,0.0099,0.0129,0.0137,0,0,0,0.0016,0.0008,-0.0003,0.0006,-0.0004,0.003,0.0014,0.0049,0.0067,0.0054,0.0061,0.0061,0.0099,0.0127,0.0136,0.0212,0.0222,0,0,0.0023,0.0009,0.0018,0.0008,0.004,0.0032,0.0069,0.0076,0.0059,0.0056,0.0056,0.01,0.0128,0.0137,0.0185,0.0197,0,0,0,0.0034,0.004,0.005,0.0062,0.0073,0.0098,0.0101,0.0086,0.0075,0.0063,0.0079,0.0096,0.01,0.0143,0.0151,0.0142,0.0059,0.0059,0.0059,0.0052,0.0063,0.0091,0.0108,0.0129,0.0143,0.0149,0.0121,0.0104,0.0088,0.0112,0.0126,0.017,0.0178,0.0167,0.0086,0.0086,0.0086,0.0086,0.0086,0.0098,0.0123,0.0155,0.0167,0.0191,0.0182,0.0162,0.0148,0.0121,0.0123,0.0163,0.0191,0.0175,0.0089,0.0088,0.0088,0.0088,0.0088,0.009,0.0098,0.0124,0.0173,0.0199,0.0212,0.0233,0.0219,0.0183,0.0196,0.0226,0.0226,0.0227,0.0191,0.0191,0.0192,0.0192,0.0192,0.0192,0.0078,0.0107,0.0146,0.0192,0.0218,0.0248,0.0269,0.0278,0.0292,0.0281,0.0281,0.0233,0.0158,0.017,0.0195,0.0194,0.0194,0.0194,0.0193,0.0095,0.0099,0.0167,0.0202,0.0279,0.0347,0.0344,0.0406,0.0399,0.042,0.0364,0.0317,0.0313,0.0306,0.0321,0.0383,0.0383,0.0383,0.0383,0.0094,0.0102,0.0199,0.0271,0.0343,0.0402,0.0517,0.0559,0.0523,0.05,0.0434,0.0426,0.0419,0.0418,0.0409,0.0424,0.0511,0.0511,0.0511,0.0117,0.0143,0.0211,0.029,0.0382,0.0484,0.0628,0.0751,0.0661,0.0511,0.0406,0.04,0.0378,0.0367,0.0356,0.0344,0.0365,0,0]}],[{"header":{"parameterUnit":"m.s-1","parameterCategory":2,"la1":30.2992,"la2":30.254,"lo1":-89.0895,"lo2":-89.0443,"dy":0.0025,"dx":0.0025,"nx":19,"ny":19,"refTime":"2026-03-20T09:00:00:Z","depth":"2","parameterNumber":2,"parameterNumberName":"U-component_of_CURRENTS"},"data":[0,0,0,0.0286,0.0286,0.0497,0.05,0.0711,0.0711,0,0,0,0,0,0,0,0,0,0,0,0.0242,0.0241,0.0286,0.0286,0.0497,0.05,0.0711,0.0711,0,0,0,0,0,0,0,0,0,0,0,0.0243,0.0242,0.024,0.0286,0.0496,0.05,0.0711,0.0599,0,0,0,0,0,0,0,0,0,0,0.0416,0.0479,0.0242,0.024,0.0286,0.0496,0.05,0.0596,0.0606,0.0555,0,0.0514,0,0.0537,0.0711,0.0711,0,0,0,0.0424,0.0473,0.0347,0.024,0.0286,0.0495,0.0441,0.0603,0.0614,0.0567,0.0517,0.0525,0.0541,0.0711,0.0711,0.0704,0.0704,0,0,0.0412,0.0477,0.0338,0.0351,0.024,0.0433,0.0445,0.0612,0.0685,0.0518,0.053,0.0544,0.0711,0.0711,0.0705,0.0704,0,0,0,0.0286,0.047,0.0352,0.0342,0.034,0.0435,0.0451,0.0684,0.0588,0.0532,0.0547,0.0711,0.0711,0.0705,0.0705,0.0885,0,0,0,0.0286,0.0382,0.0344,0.0415,0.0334,0.0555,0.0519,0.0581,0.0598,0.0546,0.0711,0.0711,0.0705,0.0705,0.088,0.0904,0,0,0,0.0251,0.0387,0.0336,0.0412,0.0417,0.055,0.0485,0.0589,0.0598,0.0711,0.0711,0.0705,0.0705,0.0876,0.0898,0.0934,0,0,0,0.0415,0.033,0.034,0.0353,0.0412,0.0506,0.0485,0.0686,0.0805,0.0711,0.0705,0.0705,0.0875,0.0894,0.093,0.0828,0.0837,0,0,0.0364,0.0332,0.034,0.0344,0.0391,0.0493,0.0648,0.0793,0.0759,0.0669,0.0671,0.0882,0.0897,0.0933,0.0815,0.0824,0,0,0,0.0365,0.0365,0.0392,0.0456,0.05,0.0666,0.0786,0.0809,0.0877,0.0787,0.0826,0.0827,0.0846,0.0774,0.0782,0.0703,0.0704,0.0704,0.0704,0.0465,0.0464,0.0528,0.0551,0.0658,0.0814,0.0929,0.0956,0.0921,0.0969,0.0938,0.1025,0.0951,0.0955,0.0919,0.092,0.092,0.0921,0.0921,0.0518,0.0554,0.0655,0.0705,0.0811,0.097,0.1045,0.1079,0.1083,0.1041,0.1054,0.0919,0.0974,0.0934,0.0932,0.093,0.0929,0.0928,0.0927,0.0627,0.0608,0.0698,0.08,0.0949,0.1045,0.1105,0.1152,0.1209,0.1243,0.1107,0.1102,0.1132,0.1257,0.1257,0.1257,0.1258,0.1258,0.1258,0.0687,0.0733,0.0769,0.0861,0.0945,0.1018,0.1143,0.1177,0.1225,0.1229,0.1228,0.1136,0.1125,0.1145,0.1263,0.1262,0.1261,0.1261,0.126,0.069,0.0741,0.0764,0.0826,0.0921,0.0952,0.1085,0.1156,0.1208,0.1212,0.1209,0.1208,0.1119,0.1109,0.1124,0.1229,0.1229,0.1229,0.1229,0.0696,0.0709,0.0773,0.0806,0.084,0.0912,0.0993,0.0976,0.1029,0.0964,0.0975,0.0891,0.0898,0.079,0.0787,0.0792,0.0811,0.081,0.0809,0.0689,0.0725,0.0725,0.0751,0.0827,0.0858,0.0883,0.0864,0.0759,0.0789,0.0862,0.1209,0.1112,0.1114,0.0963,0.0953,0.0966,0,0]},{"header":{"parameterUnit":"m.s-1","parameterCategory":2,"la1":30.2992,"la2":30.254,"lo1":-89.0895,"lo2":-89.0443,"dy":0.0025,"dx":0.0025,"nx":19,"ny":19,"refTime":"2026-03-20T09:00:00:Z","depth":"2","parameterNumber":3,"parameterNumberName":"V-component_of_CURRENTS"},"data":[0,0,0,-0.0292,-0.0296,-0.0283,-0.0282,-0.0134,-0.0133,0,0,0,0,0,0,0,0,0,0,0,-0.0216,-0.0217,-0.0292,-0.0296,-0.0283,-0.0281,-0.0134,-0.0133,0,0,0,0,0,0,0,0,0,0,0,-0.0216,-0.0217,-0.0217,-0.0296,-0.0283,-0.0281,-0.0134,-0.0151,0,0,0,0,0,0,0,0,0,0,-0.0169,-0.0173,-0.0217,-0.0217,-0.0297,-0.0284,-0.0281,-0.0152,-0.015,-0.0135,0,-0.015,0,-0.022,-0.013,-0.013,0,0,0,-0.0191,-0.0174,-0.019,-0.0217,-0.0299,-0.0284,-0.0259,-0.0151,-0.0149,-0.0132,-0.0149,-0.0147,-0.0218,-0.013,-0.013,-0.0169,-0.017,0,0,-0.0192,-0.0189,-0.0192,-0.0189,-0.0317,-0.026,-0.026,-0.015,-0.0144,-0.0149,-0.0145,-0.0215,-0.013,-0.0129,-0.0168,-0.0169,0,0,0,-0.0264,-0.0189,-0.0205,-0.0191,-0.0246,-0.0263,-0.0262,-0.0145,-0.0157,-0.0145,-0.0213,-0.0129,-0.0129,-0.0167,-0.0168,-0.0058,0,0,0,-0.026,-0.0241,-0.0206,-0.02,-0.025,-0.0227,-0.026,-0.016,-0.0155,-0.0214,-0.0129,-0.0128,-0.0166,-0.0168,-0.0059,-0.003,0,0,0,-0.0213,-0.0238,-0.0245,-0.0201,-0.0256,-0.023,-0.023,-0.0159,-0.0203,-0.013,-0.0128,-0.0166,-0.0168,-0.006,-0.0032,-0.0042,0,0,0,-0.0194,-0.021,-0.0244,-0.0248,-0.0257,-0.0207,-0.0231,-0.0184,-0.0118,-0.0129,-0.0166,-0.0168,-0.006,-0.0033,-0.0043,-0.0003,0.0005,0,0,-0.0204,-0.021,-0.0203,-0.0237,-0.0231,-0.02,-0.0151,-0.0102,-0.0151,-0.0173,-0.0174,-0.0059,-0.0032,-0.0042,-0.0111,-0.01,0,0,0,-0.0197,-0.0187,-0.0182,-0.0191,-0.0175,-0.0117,-0.0097,-0.0109,-0.0121,-0.0153,-0.0129,-0.0118,-0.0125,-0.0106,-0.0098,-0.0177,-0.0177,-0.0177,-0.0177,-0.0172,-0.0166,-0.0145,-0.012,-0.0079,-0.0062,-0.0021,-0.0052,-0.0074,-0.011,-0.0077,-0.0082,-0.0062,-0.0055,-0.0128,-0.0127,-0.0127,-0.0127,-0.0126,-0.0135,-0.0118,-0.009,-0.0062,-0.0024,0.0035,0.004,0.0016,-0.0024,-0.0057,-0.0069,-0.0054,-0.0039,-0.0119,-0.0121,-0.0122,-0.0122,-0.0123,-0.0123,-0.0103,-0.0103,-0.0071,-0.0021,0.0031,0.0075,0.0106,0.0094,0.0036,0.0043,0.0011,0.0009,0.0003,0.0033,0.0033,0.0033,0.0033,0.0033,0.0033,-0.0091,-0.0072,-0.0016,0.0029,0.0062,0.0117,0.0151,0.0149,0.0131,0.0094,0.0093,-0.003,-0.0035,0.0007,0.0035,0.0035,0.0034,0.0034,0.0034,-0.0049,-0.0043,0.0023,0.0069,0.0148,0.0223,0.0234,0.0261,0.0226,0.0214,0.0105,0.0103,0.0059,0.0051,0.0091,0.0139,0.0139,0.0139,0.0139,-0.0031,-0.0015,0.0075,0.015,0.0222,0.0283,0.0386,0.0349,0.0254,0.014,0.014,0.0133,0.013,0.0087,0.0078,0.0117,0.0172,0.0171,0.0171,0.0015,0.0027,0.01,0.0174,0.0263,0.0365,0.048,0.0484,0.0269,0.0168,0.0101,0.0149,0.0139,0.0134,0.0063,0.0051,0.0111,0,0]}],[{"header":{"parameterUnit":"m.s-1","parameterCategory":2,"la1":30.2992,"la2":30.254,"lo1":-89.0895,"lo2":-89.0443,"dy":0.0025,"dx":0.0025,"nx":19,"ny":19,"refTime":"2026-03-20T09:00:00:Z","depth":"4","parameterNumber":2,"parameterNumberName":"U-component_of_CURRENTS"},"data":[0,0,0,-0.0569,-0.057,-0.0625,-0.0625,-0.0832,-0.0834,0,0,0,0,0,0,0,0,0,0,0,-0.0562,-0.0562,-0.0569,-0.057,-0.0625,-0.0625,-0.0831,-0.0834,0,0,0,0,0,0,0,0,0,0,0,-0.0562,-0.0562,-0.0563,-0.057,-0.0625,-0.0625,-0.0831,-0.076,0,0,0,0,0,0,0,0,0,0,-0.0691,-0.0653,-0.0562,-0.0563,-0.057,-0.0624,-0.0625,-0.0755,-0.0764,-0.0841,0,-0.0845,0,-0.0836,-0.0849,-0.085,0,0,0,-0.0586,-0.0645,-0.0662,-0.0563,-0.0571,-0.0624,-0.0605,-0.0759,-0.077,-0.0854,-0.0848,-0.0854,-0.084,-0.0851,-0.0852,-0.1102,-0.1103,0,0,-0.0583,-0.0577,-0.0653,-0.0668,-0.0583,-0.0603,-0.0606,-0.0764,-0.0777,-0.0848,-0.0858,-0.0843,-0.0852,-0.0854,-0.1101,-0.1103,0,0,0,-0.0564,-0.0575,-0.0585,-0.0661,-0.0655,-0.0604,-0.0608,-0.077,-0.0774,-0.086,-0.0846,-0.0854,-0.0856,-0.11,-0.1102,-0.1107,0,0,0,-0.0563,-0.0562,-0.0583,-0.0581,-0.0651,-0.0692,-0.0611,-0.0763,-0.078,-0.0845,-0.0854,-0.0859,-0.1099,-0.1101,-0.1104,-0.1086,0,0,0,-0.056,-0.0561,-0.0567,-0.058,-0.0595,-0.0689,-0.0701,-0.0766,-0.0772,-0.085,-0.0859,-0.1098,-0.1101,-0.1102,-0.1083,-0.1002,0,0,0,-0.0553,-0.0554,-0.0567,-0.0564,-0.0594,-0.0629,-0.07,-0.0773,-0.084,-0.0855,-0.1099,-0.1102,-0.1101,-0.1081,-0.1002,-0.0762,0,0,0,-0.0546,-0.0553,-0.0549,-0.0561,-0.0566,-0.0623,-0.0668,-0.0804,-0.0908,-0.1057,-0.1062,-0.1105,-0.1083,-0.1002,-0.0909,0,0,0,0,-0.054,-0.0537,-0.0542,-0.0547,-0.0581,-0.0637,-0.074,-0.0807,-0.0997,-0.0954,-0.1153,-0.114,-0.1087,-0.0952,-0.1114,-0.1113,-0.1113,-0.1113,-0.1112,-0.0523,-0.0525,-0.0518,-0.0535,-0.057,-0.0672,-0.0752,-0.0886,-0.0989,-0.1095,-0.118,-0.1173,-0.1041,-0.1234,-0.1234,-0.1234,-0.1234,-0.1234,-0.1234,-0.0494,-0.0485,-0.0498,-0.0498,-0.0561,-0.063,-0.0805,-0.0917,-0.1088,-0.1186,-0.1135,-0.1017,-0.1236,-0.1235,-0.1235,-0.1235,-0.1235,-0.1235,-0.1235,-0.0478,-0.0474,-0.0473,-0.0477,-0.0538,-0.0654,-0.0761,-0.0981,-0.1088,-0.1138,-0.0966,-0.1149,-0.11,-0.1126,-0.1126,-0.1125,-0.1125,-0.1125,-0.1124,-0.0468,-0.0462,-0.0444,-0.0466,-0.0487,-0.0596,-0.0791,-0.0814,-0.0945,-0.0933,-0.1148,-0.1135,-0.1138,-0.1094,-0.1118,-0.112,-0.112,-0.1121,-0.1121,-0.0431,-0.0443,-0.0413,-0.0411,-0.0422,-0.0487,-0.0649,-0.061,-0.0585,-0.0498,-0.0779,-0.0798,-0.0747,-0.0759,-0.0699,-0.0607,-0.0604,-0.06,0,-0.0409,-0.0411,-0.0364,-0.0332,-0.0313,-0.0413,-0.033,-0.032,-0.0402,-0.0456,-0.0562,-0.0888,-0.0899,-0.0851,-0.0857,-0.0789,0,0,0,-0.0366,-0.0369,-0.0319,-0.0286,-0.0257,-0.0237,-0.0309,-0.0279,-0.0451,-0.0231,-0.0522,-0.0543,-0.0711,-0.11,-0.1066,-0.107,-0.0995,0,0]},{"header":{"parameterUnit":"m.s-1","parameterCategory":2,"la1":30.2992,"la2":30.254,"lo1":-89.0895,"lo2":-89.0443,"dy":0.0025,"dx":0.0025,"nx":19,"ny":19,"refTime":"2026-03-20T09:00:00:Z","depth":"4","parameterNumber":3,"parameterNumberName":"V-component_of_CURRENTS"},"data":[0,0,0,-0.0006,-0.0008,-0.0101,-0.0101,-0.0226,-0.0228,0,0,0,0,0,0,0,0,0,0,0,0.0022,0.0021,-0.0005,-0.0008,-0.0101,-0.0101,-0.0226,-0.0228,0,0,0,0,0,0,0,0,0,0,0,0.0022,0.0021,0.002,-0.0008,-0.0101,-0.0101,-0.0226,-0.0154,0,0,0,0,0,0,0,0,0,0,-0.0063,-0.0027,0.0021,0.002,-0.0009,-0.0101,-0.0101,-0.0151,-0.0159,-0.0186,0,-0.0207,0,-0.0219,-0.0236,-0.0236,0,0,0,-0.0008,-0.0021,-0.0055,0.002,-0.0009,-0.0101,-0.0059,-0.0155,-0.0164,-0.0196,-0.0209,-0.0213,-0.0221,-0.0237,-0.0237,-0.0329,-0.0329,0,0,-0.0003,0.0014,-0.0049,-0.0061,-0.0044,-0.0056,-0.0062,-0.0161,-0.0169,-0.0209,-0.0216,-0.0223,-0.0238,-0.0239,-0.0329,-0.0329,0,0,0,0.0012,0.0017,-0.0014,-0.0056,-0.0072,-0.0059,-0.0066,-0.0164,-0.0178,-0.0218,-0.0225,-0.0238,-0.024,-0.0329,-0.0329,-0.0316,0,0,0,0.0015,0.0026,-0.0012,-0.0002,-0.007,-0.0116,-0.0067,-0.0171,-0.0183,-0.0224,-0.0238,-0.0241,-0.0329,-0.0329,-0.0316,-0.0325,0,0,0,0.0028,0.0028,0.0012,-0.0001,-0.0042,-0.0115,-0.0134,-0.0174,-0.0187,-0.0237,-0.0241,-0.0329,-0.0329,-0.0316,-0.0325,-0.0337,0,0,0,0.0055,0.0007,0.0012,-0.0049,-0.0041,-0.0134,-0.0133,-0.0189,-0.0232,-0.0239,-0.0329,-0.0329,-0.0316,-0.0325,-0.0337,-0.0297,0,0,0,0.0006,0.0002,-0.0038,-0.0036,-0.0122,-0.012,-0.0207,-0.0246,-0.024,-0.0297,-0.0299,-0.0316,-0.0325,-0.0337,-0.0305,0,0,0,0,-0.0047,-0.0068,-0.0099,-0.0143,-0.0199,-0.0237,-0.0273,-0.028,-0.0289,-0.0266,-0.0322,-0.0329,-0.0337,-0.0313,-0.0329,-0.0329,-0.0329,-0.0329,-0.0329,-0.007,-0.0106,-0.0169,-0.0218,-0.0268,-0.0318,-0.035,-0.0358,-0.0342,-0.0322,-0.0322,-0.033,-0.0304,-0.0319,-0.0319,-0.0319,-0.0319,-0.0319,-0.0319,-0.0127,-0.0168,-0.0199,-0.027,-0.0311,-0.0374,-0.0413,-0.0391,-0.0381,-0.0342,-0.0349,-0.0306,-0.0318,-0.0318,-0.0318,-0.0319,-0.0319,-0.0319,-0.0319,-0.0138,-0.0165,-0.0196,-0.0271,-0.0336,-0.0388,-0.0419,-0.0404,-0.0377,-0.0365,-0.0315,-0.0333,-0.0331,-0.0333,-0.0333,-0.0333,-0.0333,-0.0333,-0.0333,-0.0137,-0.0172,-0.0215,-0.0283,-0.0326,-0.0368,-0.0396,-0.0394,-0.036,-0.0312,-0.0334,-0.0336,-0.0335,-0.0332,-0.0335,-0.0334,-0.0334,-0.0334,-0.0334,-0.0168,-0.0171,-0.023,-0.0268,-0.0353,-0.0371,-0.0392,-0.0365,-0.0347,-0.0323,-0.0303,-0.0304,-0.0312,-0.0312,-0.0309,-0.0304,-0.0304,-0.0303,0,-0.0174,-0.0186,-0.0254,-0.031,-0.0351,-0.0382,-0.0339,-0.0335,-0.0319,-0.0302,-0.0358,-0.0338,-0.0337,-0.0349,-0.0348,-0.0346,0,0,0,-0.0185,-0.0205,-0.0251,-0.0315,-0.0362,-0.0339,-0.0329,-0.031,-0.0312,-0.0295,-0.0291,-0.0294,-0.0341,-0.0339,-0.0354,-0.0353,-0.035,0,0]}]]